Location: Unspecified
(32.2083°N, 0.0000°E)
Time: 08:36:06
(UTC+00:00)

Meteor 1-15 Rocket - Visible Passes

Search period start: 04 April 2026 00:00
Search period end: 14 April 2026 00:00
Orbit: 837 x 907 km, 81.2° (Epoch: 29 March)

Date Brightness Start Highest point End Pass type
(mag) Time Alt. Az. Time Alt. Az. Time Alt. Az.
4 Apr 4.0 20:12:15 34° S 20:14:43 71° E 20:20:15 10° NNE visible
4 Apr 7.0 21:57:09 10° W 21:58:35 11° WNW 22:00:03 10° NW visible
5 Apr 4.0 20:03:33 10° S 20:09:06 75° E 20:14:39 10° NNE visible
5 Apr 7.1 21:52:12 10° WNW 21:53:01 10° WNW 21:53:49 10° WNW visible
6 Apr 4.0 19:57:55 10° S 20:03:29 79° E 20:09:02 10° N visible
7 Apr 4.1 19:52:18 10° S 19:57:52 82° E 20:03:25 10° N visible
8 Apr 4.1 19:46:41 10° S 19:52:15 86° E 19:57:50 10° N visible
9 Apr 4.1 19:41:04 10° S 19:46:38 90° SW 19:52:13 10° N visible
10 Apr 4.2 19:35:28 10° S 19:41:01 86° W 19:46:36 10° N visible
11 Apr 4.3 19:29:51 10° S 19:35:25 82° W 19:40:59 10° N visible
12 Apr 4.3 19:24:15 10° S 19:29:48 78° W 19:35:22 10° N visible
13 Apr 4.4 19:18:39 10° SSW 19:24:11 75° W 19:29:45 10° N visible
